Location: Boiro
(42.6475°N, 8.8834°W)
Time: 21:22:36
(UTC+01:00)

Vanguard 3 - Pass Details

Date: 03 December 2021
Orbit: 508 x 3260 km, 33.3° (Epoch: 17 January)

Event Time Altitude Azimuth Distance (km) Brightness Sun altitude
Rises 10:58:34 0° 278° (W) 6,697 11.4 16.9°
Reaches altitude 10° 11:04:10 10° 270° (W) 5,292 11.0 17.5°
Maximum altitude 11:15:51 31° 217° (SW) 2,862 10.4 18.6°
Drops below altitude 10° 11:23:22 10° 159° (SSE) 3,337 12.5 19.4°
Sets 11:26:03 0° 148° (SSE) 3,979 12.3 19.6°
